Home > Weather > Rapid City > Past weeks

Flag for U.S.A. Weather for the Past 2 Weeks in Rapid City, South Dakota, U.S.A.

Now
47 °F

Sunny.


Feels Like: 41 °F
Forecast: 28 / 50 °F
Wind: 15 mph from Southeast

Location: Ellsworth Air Force Base

Current Time: Feb 13, 2016 at 1:24:55 PM

Latest Report: Feb 13, 2016 at 12:58 PM


Visibility: 10 mi

Pressure: 29.87 "Hg (26.53 "Hg at 977m altitude)

Humidity: 57%

Dew point: 33 °F

Location of Rapid CityLocation

Historic Weather in Rapid City — Graph

°F

Rapid City Temperature Yesterday

Maximum temperature yesterday: 31 °F (at 12:58 AM)
Minimum temperature yesterday: 23 °F (at 7:58 PM)
Average temperature yesterday: 27 °F

High & Low Weather Summary for the Past Weeks

 TemperatureHumidityPressure
High61 °F (Feb 10, 10:58 AM)100% (Feb 2, 4:53 AM)30.52 "Hg (Feb 2, 4:53 AM)
Low10 °F (Feb 4, 7:58 AM)23% (Feb 10, 10:58 AM)29.48 "Hg (Jan 30, 4:58 AM)
Average33 °F66%30.09 "Hg
* Reported Jan 29 11:58 AM — Feb 13 11:58 AM, Rapid City, Weather by CustomWeather, © 2016

Note: Actual official high and low records may vary slightly from our data, if they occured in-between our weather recording intervals... More about our weather records

Advertising

Rapid City Weather History for the Previous 24 Hours

 ConditionsComfort  
Time TempWeatherWind HumidityBarometerVisibility
11:58 AM
Sat, Feb 13
41 °FPartly sunny.1 mph71%29.96 "Hg10 mi
10:58 AM39 °FPartly sunny.10 mph78%29.99 "Hg10 mi
9:58 AM35 °FScattered clouds.7 mph88%30.02 "Hg10 mi
8:58 AM33 °FScattered clouds.10 mph94%30.05 "Hg10 mi
8:03 AM32 °FScattered clouds.12 mph100%29.96 "Hg10 mi
7:58 AM32 °FPartly sunny.14 mph96%30.08 "Hg10 mi
6:58 AM31 °FLow clouds.12 mph97%30.10 "Hg10 mi
5:58 AM30 °FLow clouds.9 mph96%30.14 "Hg10 mi
4:58 AM29 °FLow clouds.9 mph95%30.16 "Hg10 mi
3:58 AM28 °FLow clouds.12 mph94%30.19 "Hg10 mi
2:58 AM27 °FLow clouds.12 mph94%30.22 "Hg10 mi
1:58 AM26 °FLow clouds.14 mph94%30.24 "Hg10 mi
12:58 AM25 °FMostly cloudy.16 mph96%30.26 "Hg10 mi
11:58 PM
Fri, Feb 12
24 °FLow clouds.13 mph96%30.29 "Hg10 mi
10:58 PM24 °FLow clouds.14 mph96%30.34 "Hg10 mi
9:58 PM24 °FLow clouds.15 mph97%30.37 "Hg10 mi
8:58 PM24 °FLow clouds.14 mph99%30.39 "Hg10 mi
7:58 PM23 °FLow clouds.14 mph99%30.43 "Hg10 mi
6:58 PM23 °FLow clouds.13 mph93%30.44 "Hg10 mi
5:58 PM23 °FLow clouds.12 mph99%30.45 "Hg10 mi
4:58 PM24 °FLight freezing rain. Ice fog.13 mph98%30.47 "Hg2 mi
3:58 PM25 °FLight freezing rain. Ice fog.12 mph99%30.45 "Hg1 mi
2:58 PM25 °FLight freezing rain. Ice fog.13 mph99%30.45 "Hg1 mi
1:58 PM25 °FLight freezing rain. Ice fog.13 mph99%30.46 "Hg1 mi
1:04 PM27 °FLight freezing rain. Ice fog.12 mph100%30.36 "Hg0 mi
Weather by CustomWeather, © 2016

See weather overviewHow to use our weather pages